Terminal Aerodrome Forecast
Issued by NWS Pueblo, CO

Home | Current Version | Previous Version | Text Only | Print | Product List | Glossary On
Versions: 1 2 3 4 5 6 7 8 9 10 11 12 13 14 15 16 17 18 19 20 21 22 23 24 25 26 27 28 29 30 31 32 33 34 35
000
FTUS45 KPUB 012056 AAA
TAFALS
TAF AMD
KALS 012056Z 0121/0218 25008KT P6SM VCSH SCT040 BKN080
     FM020100 30012KT P6SM SCT060 BKN140
     FM020600 VRB05KT P6SM FEW140=

USA.gov is the U.S. government's official web portal to all federal, state and local government web resources and services.